• In Portugal
  • List of Countries
  • For 7 days
  • Water Temperature
  • Satellite Maps
  • Weather Map
  • Weather Widgets
  • user-avatar
    Login

    Hourly Weather Ankara

    Today, 22 September, Saturday

    Time Temperature Precipitation Wind Pressure Humidity
    00:00 +20°C° 0 mm 1 mps 687 mmHg 48%
    01:00 +20°C° 0 mm 1 mps 687 mmHg 50%
    02:00 +19°C° 0 mm 1 mps 686 mmHg 52%
    03:00 +19°C° 0 mm 1 mps 686 mmHg 54%
    04:00 +18°C° 0 mm 1 mps 686 mmHg 56%
    05:00 +16°C° 0 mm 0 mps 686 mmHg 58%
    06:00 +17°C° 0 mm 0 mps 687 mmHg 53%
    07:00 +19°C° 0 mm 0 mps 687 mmHg 48%
    08:00 +20°C° 0 mm 0 mps 687 mmHg 44%
    09:00 +24°C° 0 mm 1 mps 687 mmHg 39%
    10:00 +25°C° 0 mm 1 mps 688 mmHg 35%
    11:00 +26°C° 0 mm 1 mps 688 mmHg 30%
    12:00 +27°C° 0 mm 2 mps 688 mmHg 27%
    13:00 +28°C° 0 mm 2 mps 687 mmHg 24%
    14:00 +29°C° 0 mm 2 mps 687 mmHg 21%
    15:00 +29°C° 0 mm 2 mps 687 mmHg 22%
    16:00 +28°C° 0 mm 2 mps 687 mmHg 23%
    17:00 +28°C° 0 mm 3 mps 687 mmHg 24%
    18:00 +27°C° 0 mm 2 mps 687 mmHg 28%
    19:00 +25°C° 0 mm 2 mps 687 mmHg 32%
    20:00 +24°C° 0 mm 2 mps 687 mmHg 37%
    21:00 +23°C° 0 mm 2 mps 687 mmHg 40%
    22:00 +21°C° 0 mm 2 mps 687 mmHg 44%
    23:00 +20°C° 0 mm 2 mps 687 mmHg 48%

    Tomorrow, 23 September, Sunday

    Time Temperature Precipitation Wind Pressure Humidity
    00:00 +20°C° 0 mm 2 mps 687 mmHg 49%
    01:00 +19°C° 0 mm 2 mps 687 mmHg 51%
    02:00 +20°C° 0 mm 1 mps 687 mmHg 52%
    03:00 +19°C° 0 mm 1 mps 687 mmHg 53%
    04:00 +19°C° 0 mm 1 mps 687 mmHg 54%
    05:00 +18°C° 0 mm 1 mps 687 mmHg 55%
    06:00 +19°C° 0 mm 1 mps 688 mmHg 50%
    07:00 +21°C° 0 mm 1 mps 688 mmHg 46%
    08:00 +22°C° 0 mm 1 mps 689 mmHg 41%
    09:00 +24°C° 0 mm 1 mps 689 mmHg 35%
    10:00 +25°C° 0 mm 1 mps 690 mmHg 28%
    11:00 +27°C° 0 mm 1 mps 690 mmHg 22%
    12:00 +28°C° 0 mm 2 mps 690 mmHg 20%
    13:00 +28°C° 0 mm 2 mps 690 mmHg 18%
    14:00 +29°C° 0 mm 2 mps 690 mmHg 15%
    15:00 +29°C° 0 mm 2 mps 690 mmHg 16%
    16:00 +29°C° 0 mm 2 mps 689 mmHg 17%
    17:00 +28°C° 0 mm 3 mps 689 mmHg 18%
    18:00 +27°C° 0 mm 2 mps 689 mmHg 23%
    19:00 +25°C° 0 mm 2 mps 690 mmHg 27%
    20:00 +23°C° 0 mm 2 mps 690 mmHg 31%
    21:00 +23°C° 0 mm 2 mps 690 mmHg 34%
    22:00 +21°C° 0 mm 2 mps 690 mmHg 37%
    23:00 +20°C° 0 mm 2 mps 690 mmHg 40%

    Day after tomorrow, 24 September, Monday

    Time Temperature Precipitation Wind Pressure Humidity
    00:00 +20°C° 0 mm 2 mps 690 mmHg 41%
    01:00 +19°C° 0 mm 2 mps 689 mmHg 41%
    02:00 +19°C° 0 mm 2 mps 689 mmHg 42%
    03:00 +18°C° 0 mm 2 mps 689 mmHg 43%
    04:00 +19°C° 0 mm 1 mps 689 mmHg 44%
    05:00 +18°C° 0 mm 1 mps 688 mmHg 45%
    06:00 +20°C° 0 mm 1 mps 688 mmHg 43%
    07:00 +21°C° 0 mm 1 mps 689 mmHg 40%
    08:00 +22°C° 0 mm 1 mps 689 mmHg 38%
    09:00 +24°C° 0 mm 2 mps 689 mmHg 34%
    10:00 +26°C° 0 mm 2 mps 689 mmHg 29%
    11:00 +27°C° 0 mm 2 mps 689 mmHg 25%
    12:00 +28°C° 0 mm 2 mps 688 mmHg 23%
    13:00 +29°C° 0 mm 2 mps 688 mmHg 21%
    14:00 +30°C° 0 mm 2 mps 688 mmHg 18%
    15:00 +30°C° 0 mm 2 mps 687 mmHg 19%
    16:00 +30°C° 0 mm 2 mps 687 mmHg 19%
    17:00 +29°C° 0 mm 2 mps 687 mmHg 20%
    18:00 +28°C° 0 mm 1 mps 687 mmHg 22%
    19:00 +26°C° 0 mm 1 mps 686 mmHg 25%
    20:00 +24°C° 0 mm 1 mps 686 mmHg 27%
    21:00 +24°C° 0 mm 1 mps 686 mmHg 28%
    22:00 +23°C° 0 mm 1 mps 686 mmHg 30%
    23:00 +23°C° 0 mm 1 mps 686 mmHg 31%

    25 September, Tuesday

    Time Temperature Precipitation Wind Pressure Humidity
    00:00 +22°C° 0 mm 1 mps 686 mmHg 32%
    01:00 +22°C° 0 mm 1 mps 686 mmHg 34%
    02:00 +21°C° 0 mm 1 mps 686 mmHg 35%
    03:00 +21°C° 0 mm 1 mps 686 mmHg 37%
    04:00 +20°C° 0 mm 1 mps 686 mmHg 39%
    05:00 +19°C° 0 mm 2 mps 686 mmHg 40%
    06:00 +20°C° 0 mm 2 mps 686 mmHg 38%
    07:00 +21°C° 0 mm 2 mps 687 mmHg 36%
    08:00 +24°C° 0 mm 2 mps 687 mmHg 34%
    09:00 +25°C° 0 mm 3 mps 687 mmHg 32%
    10:00 +26°C° 0 mm 3 mps 688 mmHg 30%
    11:00 +27°C° 0 mm 3 mps 688 mmHg 28%
    12:00 +28°C° 0 mm 4 mps 688 mmHg 28%
    13:00 +28°C° 0 mm 4 mps 687 mmHg 29%
    14:00 +28°C° 0 mm 4 mps 687 mmHg 29%
    15:00 +27°C° 0 mm 5 mps 687 mmHg 35%
    16:00 +26°C° 0 mm 6 mps 687 mmHg 41%
    17:00 +23°C° 0 mm 7 mps 687 mmHg 47%
    18:00 +21°C° 0 mm 6 mps 688 mmHg 53%
    19:00 +20°C° 0 mm 6 mps 688 mmHg 59%
    20:00 +17°C° 0 mm 6 mps 688 mmHg 65%
    21:00 +16°C° 0 mm 6 mps 689 mmHg 65%
    22:00 +16°C° 0 mm 6 mps 689 mmHg 65%
    23:00 +15°C° 0 mm 5 mps 689 mmHg 65%

    26 September, Wednesday

    Time Temperature Precipitation Wind Pressure Humidity
    00:00 +15°C° 0 mm 5 mps 689 mmHg 65%
    01:00 +14°C° 0 mm 5 mps 689 mmHg 66%
    02:00 +14°C° 0 mm 5 mps 689 mmHg 66%
    03:00 +13°C° 0.1 mm 5 mps 689 mmHg 66%
    04:00 +12°C° 0.1 mm 5 mps 689 mmHg 66%
    05:00 +12°C° 0.1 mm 5 mps 689 mmHg 66%
    06:00 +12°C° 0.2 mm 5 mps 689 mmHg 66%
    07:00 +10°C° 0.2 mm 5 mps 690 mmHg 66%
    08:00 +10°C° 0.2 mm 5 mps 690 mmHg 66%
    09:00 +10°C° 0.3 mm 5 mps 690 mmHg 66%
    10:00 +10°C° 0.3 mm 5 mps 690 mmHg 66%
    11:00 +10°C° 0.3 mm 6 mps 690 mmHg 66%
    12:00 +10°C° 0.3 mm 6 mps 690 mmHg 66%
    13:00 +10°C° 0.3 mm 6 mps 689 mmHg 65%
    14:00 +10°C° 0.3 mm 6 mps 689 mmHg 65%
    15:00 +10°C° 0.2 mm 7 mps 689 mmHg 65%
    16:00 +10°C° 0.2 mm 7 mps 689 mmHg 65%
    17:00 +10°C° 0.2 mm 7 mps 689 mmHg 66%
    18:00 +9°C° 0.2 mm 7 mps 689 mmHg 67%
    19:00 +9°C° 0.2 mm 7 mps 690 mmHg 67%
    20:00 +9°C° 0.2 mm 7 mps 690 mmHg 68%
    21:00 +9°C° 0 mm 7 mps 690 mmHg 68%
    22:00 +9°C° 0 mm 7 mps 690 mmHg 69%
    23:00 +9°C° 0 mm 7 mps 690 mmHg 69%

    27 September, Thursday

    Time Temperature Precipitation Wind Pressure Humidity
    00:00 +8°C° 0 mm 6 mps 689 mmHg 69%
    01:00 +8°C° 0 mm 6 mps 689 mmHg 69%
    02:00 +8°C° 0 mm 6 mps 689 mmHg 70%
    03:00 +8°C° 0 mm 6 mps 689 mmHg 71%
    04:00 +7°C° 0 mm 6 mps 689 mmHg 73%
    05:00 +7°C° 0 mm 6 mps 689 mmHg 74%
    06:00 +8°C° 0 mm 6 mps 689 mmHg 71%
    07:00 +9°C° 0 mm 6 mps 689 mmHg 69%
    08:00 +10°C° 0 mm 7 mps 689 mmHg 66%
    09:00 +11°C° 0 mm 7 mps 689 mmHg 61%
    10:00 +14°C° 0 mm 7 mps 689 mmHg 56%
    11:00 +15°C° 0 mm 8 mps 689 mmHg 51%
    12:00 +16°C° 0 mm 8 mps 688 mmHg 49%
    13:00 +17°C° 0 mm 7 mps 688 mmHg 46%
    14:00 +20°C° 0 mm 7 mps 687 mmHg 44%
    15:00 +18°C° 0 mm 7 mps 687 mmHg 46%
    16:00 +18°C° 0 mm 7 mps 686 mmHg 48%
    17:00 +17°C° 0 mm 7 mps 686 mmHg 49%
    18:00 +16°C° 0 mm 6 mps 686 mmHg 54%
    19:00 +15°C° 0 mm 5 mps 686 mmHg 58%
    20:00 +14°C° 0 mm 4 mps 686 mmHg 62%
    21:00 +13°C° 0 mm 4 mps 686 mmHg 65%
    22:00 +13°C° 0 mm 3 mps 686 mmHg 67%
    23:00 +12°C° 0 mm 3 mps 686 mmHg 69%
    Show more